Location: Newark
(48.3453°N, 0.5589°E)
Time: 11:30:00
(UTC+00:00)

A-11 Canister half - Pass Details

Date: 13 December 2019
Orbit: 1517 x 1683 km, 47.2° (Epoch: 25 January)

Event Time Altitude Azimuth Distance (km) Brightness Sun altitude
Rises 12:59:13 0° 253° (WSW) 4,753 12.0 16.9°
Reaches altitude 10° 13:02:15 10° 253° (WSW) 3,791 11.6 16.8°
Maximum altitude 13:11:56 80° 168° (SSE) 1,653 9.6 16.3°
Drops below altitude 10° 13:21:59 10° 84° (E) 3,920 10.9 15.7°
Sets 13:25:10 0° 83° (E) 4,921 11.4 15.5°
